カタログに戻る

STARLINK-3607

運用中通信VLEO
NORAD 51809·PAYLOAD·🇺🇸 United States

打ち上げ Feb 25, 2022 から Vandenberg Space Force Base

Loading…

次のパス (今後24時間)

TLE

最新Source: CelesTrak SupGP

元期: Sep 15, 2026, 01:31 UTC

1 51809C 22017AT  26258.06368056 -.00024146  00000+0 -73282-3 0  2583
2 51809  53.1581 197.4273 0001389  78.8111  35.4607 15.33554756    18

AllMySatでSTARLINK-3607をリアルタイム追跡

Download on the App Store